星链-30163 (STARLINK-30163 )

导读

STARLINK-30163是美国SpaceX公司星链(Starlink)卫星互联网项目中的一颗卫星,于2023年7月10日发射入轨,隶属于美国SpaceX公司打造的低轨巨型星座网络,主要为全球范围提供高速互联网接入服务,助力偏远地区网络覆盖,也支持移动场景的互联通信,是星链星座部署扩张中的重要组成单元。

基本信息
目录编号:
57309
目录名称:
STARLINK-30163
国际标识:
2023-096V
轨道中心:
EARTH
卫星名称:
星链-30163
卫星全名:
星链-30163 (STARLINK-30163 )
卫星状态:
已陨落 最后检测时间 2025-12-20
发射日期:
2023-07-10 UTC
国别 :
美国 (US)
星等 :
--
轨道信息
数据来源 国际轨道数据
星历时间: 2025-12-20T08:27:36+0800
轨道信息已过期180天
半长轴: 6569.41km
偏心率: 0.0010158
轨道倾角: 42.974°
近地点辐角 229.377°
升交点赤经 210.549°
平近点角 130.624°
近地点: 184.599km
远地点: 197.947km
周期: 88.318分钟
每日圈数: 16.304717
详细信息
固有亮度:
5
最大亮度:
0.3
卫星平台:
Starlink v2.0 mini
覆盖范围:
全球
运营商:
太空探索技术公司
运营商所在国:
美国
制造商(研发单位):
太空探索技术公司
制造商所在国:
美国
使用方式:
暂无
卫星简介
星链(Starlink)计划是由太空探索技术公司(SpaceX)提出的一个巨型低轨卫星互联网星座项目,计划在2019年至2024年间在太空搭建由约1.2万颗卫星组成的“星链”网络,其中1584颗将部署在地球上空550千米处的近地轨道,并从2020年开始工作。该卫星仍在工作。